Cork, Ireland

6:40 AM GMT on November 18, 2017 (GMT +0000)
Cork

Weather History for EICK - October, 2011

Change the Weather History Date:

Tuesday, October 4, 2011

  Actual Average Record
Temperature  
Mean Temperature 50 °F -  
Max Temperature 59 °F 55 °F 62 °F (2002)
Min Temperature 41 °F 45 °F 41 °F (2012)
Degree Days  
Heating Degree Days 15    
Moisture  
Dew Point 51 °F    
Average Humidity 98    
Maximum Humidity 100    
Minimum Humidity 93    
Precipitation  
Precipitation 0.00 in 0.16 in - ()
Sea Level Pressure  
Sea Level Pressure 30.09 in    
Wind  
Wind Speed 6 mph ()    
Max Wind Speed 15 mph    
Max Gust Speed -    
Visibility 5.0 miles    
Events Fog , Rain    
Averages and records for this station are not official NWS values.
T = Trace of Precipitation, MM = Missing Value Source: Averaged Metar Reports

Daily Weather History Graph

Daily Weather History Graph

Search for Another Location

Airport or City:

Trip Planner

Search our weather history database for the weather conditions in past years. The results will help you decide how hot, cold, wet, or windy it might be!

Date:

Astronomy

Oct. 04, 2011 Rise Set
Actual Time 7:39 AM IST 7:05 PM IST
Civil Twilight 7:05 AM IST 7:38 PM IST
Nautical Twilight 6:26 AM IST 8:17 PM IST
Astronomical Twilight 5:46 AM IST 8:57 PM IST
Moon 3:44 PM IST (10/4) No Moon Set
Length of Visible Light 12h 33m
Length of Day
11h 26m
First Quarter, 53% of the Moon is Illuminated
Oct 4
First Quarter
Oct 12
Full
Oct 20
Last Quarter
Oct 26
New
Nov 2
First Quarter

Hourly Weather History & Observations

Time (IST) Temp. Windchill Dew Point Humidity Pressure Visibility Wind Dir Wind Speed Gust Speed Precip Events Conditions
12:00 AM 48.2 °F - 46.4 °F 93% 30.12 in 5.6 mi West 3.5 mph - N/A   Partly Cloudy
12:30 AM 48.2 °F - 46.4 °F 93% 30.12 in 6.2 mi West 4.6 mph - N/A   Partly Cloudy
1:00 AM 44 °F - 43 °F 96% 30.14 in 7 mi SW 6.7 mph - -   Mist
1:00 AM 44.6 °F 41.4 °F 42.8 °F 93% 30.12 in 6.2 mi SW 5.8 mph - N/A   Partly Cloudy
1:30 AM 44.6 °F 40.7 °F 44.6 °F 100% 30.12 in 6.2 mi WSW 6.9 mph - N/A   Partly Cloudy
2:00 AM 46.4 °F 42.9 °F 44.6 °F 93% 30.12 in 6.2 mi WSW 6.9 mph - N/A   Partly Cloudy
2:30 AM 44.6 °F 43.1 °F 44.6 °F 100% 30.12 in 6.2 mi Variable 3.5 mph - N/A   Partly Cloudy
3:00 AM 44.6 °F 41.4 °F 44.6 °F 100% 30.12 in 6.2 mi WSW 5.8 mph - N/A   Partly Cloudy
3:30 AM 44.6 °F - 42.8 °F 93% 30.09 in 6.2 mi Variable 1.2 mph - N/A   Partly Cloudy
4:00 AM 46.4 °F 45.2 °F 44.6 °F 93% 30.09 in 5.6 mi WNW 3.5 mph - N/A   Partly Cloudy
4:30 AM 44.6 °F 41.4 °F 44.6 °F 100% 30.09 in 5.6 mi West 5.8 mph - N/A   Partly Cloudy
5:00 AM 46.4 °F 44.3 °F 44.6 °F 93% 30.12 in 5.6 mi West 4.6 mph - N/A   Partly Cloudy
5:30 AM 44.6 °F 42.2 °F 44.6 °F 100% 30.09 in 5.6 mi WSW 4.6 mph - N/A   Partly Cloudy
6:00 AM 42.8 °F 38.6 °F 42.8 °F 100% 30.09 in 5.6 mi SW 6.9 mph - N/A   Partly Cloudy
6:30 AM 42.8 °F 38.0 °F 42.8 °F 100% 30.09 in 5.6 mi WSW 8.1 mph - N/A   Partly Cloudy
7:00 AM 44 °F - 44 °F 97% 30.14 in 6 mi WSW 8.9 mph - -   Mist
7:00 AM 42.8 °F 38.0 °F 42.8 °F 100% 30.09 in 5.6 mi WSW 8.1 mph - N/A   Partly Cloudy
7:30 AM 44.6 °F 40.2 °F 44.6 °F 100% 30.09 in 6.2 mi WSW 8.1 mph - N/A   Mostly Cloudy
8:00 AM 46.4 °F 44.3 °F 46.4 °F 100% 30.09 in 6.2 mi WSW 4.6 mph - N/A   Scattered Clouds
8:30 AM 44.6 °F - 42.8 °F 93% 30.12 in 6.2 mi Variable 2.3 mph - N/A   Mostly Cloudy
9:00 AM 44.6 °F 43.1 °F 44.6 °F 100% 30.12 in 6.2 mi SW 3.5 mph - N/A   Scattered Clouds
9:30 AM 46.4 °F - 46.4 °F 100% 30.12 in 6.2 mi SW 2.3 mph - N/A   Mostly Cloudy
10:00 AM 50.0 °F - 48.2 °F 94% 30.12 in 6.2 mi WSW 5.8 mph - N/A   Mostly Cloudy
10:30 AM 50.0 °F - 50.0 °F 100% 30.12 in 6.2 mi SW 6.9 mph - N/A   Mostly Cloudy
11:00 AM 51.8 °F - 50.0 °F 94% 30.12 in 6.2 mi SW 6.9 mph - N/A   Mostly Cloudy
11:30 AM 51.8 °F - 51.8 °F 100% 30.12 in 5.6 mi WSW 8.1 mph - N/A   Light Drizzle
12:00 PM 51.8 °F - 51.8 °F 100% 30.12 in 6.2 mi SW 9.2 mph - N/A   Light Drizzle
12:30 PM 53.6 °F - 53.6 °F 100% 30.12 in 3.7 mi SW 8.1 mph - N/A   Light Drizzle
1:00 PM 53 °F - 53 °F 100% 30.13 in 2 mi SW 6.7 mph - - Rain Light Drizzle
1:00 PM 53.6 °F - 53.6 °F 100% 30.12 in 1.6 mi SW 6.9 mph - N/A   Light Drizzle
1:30 PM 53.6 °F - 53.6 °F 100% 30.12 in 1.2 mi SSW 9.2 mph - N/A   Light Drizzle
2:00 PM 55.4 °F - 55.4 °F 100% 30.09 in 1.0 mi SSW 10.4 mph - N/A   Light Drizzle
2:30 PM 55.4 °F - 55.4 °F 100% 30.09 in 1.6 mi SSW 10.4 mph - N/A   Light Drizzle
3:00 PM 55.4 °F - 55.4 °F 100% 30.09 in 0.6 mi SSW 8.1 mph - N/A Fog Light Drizzle
3:30 PM 55.4 °F - 55.4 °F 100% 30.09 in 2.5 mi SW 10.4 mph - N/A   Light Drizzle
4:00 PM 57.2 °F - 57.2 °F 100% 30.06 in 6.2 mi SW 12.7 mph - N/A   Mostly Cloudy
4:30 PM 57.2 °F - 57.2 °F 100% 30.06 in 6.2 mi SW 12.7 mph - N/A   Mostly Cloudy
5:00 PM 59.0 °F - 57.2 °F 94% 30.06 in 6.2 mi SW 13.8 mph - N/A   Mostly Cloudy
5:30 PM 59.0 °F - 57.2 °F 94% 30.04 in 2.5 mi SW 13.8 mph - N/A   Light Drizzle
6:00 PM 57.2 °F - 57.2 °F 100% 30.04 in 1.9 mi SW 9.2 mph - N/A   Light Drizzle
6:30 PM 57.2 °F - 57.2 °F 100% 30.04 in 3.7 mi SW 12.7 mph - N/A   Light Drizzle
7:00 PM 57.2 °F - 57.2 °F 100% 30.04 in 3.1 mi SW 10.4 mph - N/A   Light Drizzle
7:30 PM 57.2 °F - 57.2 °F 100% 30.04 in 3.1 mi SW 10.4 mph - N/A   Light Drizzle
8:00 PM 57.2 °F - 57.2 °F 100% 30.04 in 3.7 mi SW 9.2 mph - N/A   Light Drizzle
8:30 PM 57.2 °F - 57.2 °F 100% 30.04 in 5.6 mi SW 11.5 mph - N/A   Light Drizzle
9:00 PM 57.2 °F - 57.2 °F 100% 30.04 in 5.6 mi SW 13.8 mph - N/A Rain Light Rain
9:30 PM 57.2 °F - 57.2 °F 100% 30.04 in 6.2 mi SW 12.7 mph - N/A Rain Light Rain
10:00 PM 57.2 °F - 57.2 °F 100% 30.04 in 6.2 mi SW 12.7 mph - N/A   Mostly Cloudy
10:30 PM 57.2 °F - 57.2 °F 100% 30.04 in 6.2 mi SW 13.8 mph - N/A   Mostly Cloudy
11:00 PM 57.2 °F - 57.2 °F 100% 30.01 in 5.0 mi SW 13.8 mph - N/A   Mostly Cloudy
11:30 PM 57.2 °F - 57.2 °F 100% 30.01 in 5.6 mi SW 15.0 mph - N/A   Mostly Cloudy